Theta_e
346 346 346 346 347 351 351 351 350 350 350 351 350 348 352 351 351 349 349 351 354 353 353 353 353 352 350 349 343 348 341 343 346 344 345 351 352 353 348 350 346 350 351
346 348 347 347 346 351 351 352 349 350 351 351 349 352 352 352 352 350 352 353 353 353 353 352 351 352 351 347 346 344 341 349 344 349 354 354 352 351 350 349 347 350 351
349 348 347 347 347 351 346 351 352 354 352 352 352 351 351 352 352 352 354 353 354 353 352 351 351 350 352 352 348 344 343 343 344 352 350 350 347 352 353 349 349 351 351
348 351 349 346 347 350 345 347 349 351 351 348 349 349 353 353 352 353 353 354 351 352 351 351 353 352 352 351 350 342 343 343 341 346 345 346 347 352 353 348 348 350 350
348 351 349 344 345 349 349 348 348 353 354 351 348 349 353 353 353 352 353 352 352 352 352 351 352 352 349 349 348 343 341 340 344 344 340 338 347 347 350 352 350 347 349
348 351 347 350 349 347 349 353 355 352 353 353 353 353 352 352 352 353 354 352 352 353 352 353 353 350 350 352 347 340 339 342 348 347 342 343 337 344 347 350 351 349 349
350 348 350 351 353 354 353 354 351 349 351 353 351 352 352 353 352 353 353 352 354 353 348 352 353 352 350 351 350 340 338 344 347 344 337 336 343 351 352 349 351 351 349
347 346 351 352 349 354 348 351 351 351 350 350 350 353 353 352 353 353 352 354 353 354 352 352 352 353 350 350 347 342 340 344 347 346 344 346 346 349 347 348 351 351 348
346 346 350 352 353 352 355 352 351 349 348 348 347 347 352 346 351 354 354 354 354 354 354 353 352 351 350 345 343 340 341 347 346 347 347 342 341 350 350 350 349 350 350
348 349 348 350 353 355 353 353 348 352 353 349 347 345 350 348 347 347 347 352 353 353 353 353 350 349 344 341 340 340 340 346 346 346 346 337 342 350 350 348 351 350 347
347 346 348 349 351 351 354 347 342 340 343 344 343 345 347 349 344 344 350 343 346 353 353 350 338 336 337 338 339 344 345 351 349 346 342 333 336 345 350 349 349 350 348
348 346 347 346 348 351 353 346 347 347 348 348 350 346 349 350 348 348 350 343 351 351 352 350 342 340 340 351 349 348 346 338 344 346 340 335 334 339 343 347 345 348 350
347 346 346 346 348 350 351 349 352 353 349 350 350 351 350 350 348 349 348 348 348 349 349 349 342 335 334 341 336 348 336 343 347 346 344 342 335 335 340 342 343 345 347
346 346 346 348 348 349 349 346 348 348 347 349 348 347 350 350 348 347 349 347 348 345 349 347 347 345 341 335 342 341 335 339 342 341 344 341 339 335 335 338 340 345 346
344 346 346 349 349 349 350 350 350 350 350 348 348 352 351 351 351 350 350 348 347 347 347 347 347 347 347 347 350 348 346 336 345 341 345 344 342 338 335 335 336 342 347
344 346 347 348 349 347 349 351 350 349 348 348 350 349 355 351 350 346 348 346 349 348 347 347 346 347 345 346 346 346 349 349 344 339 342 345 342 340 340 340 337 337 344
345 345 345 347 350 348 351 350 352 351 350 351 351 350 352 346 345 345 345 349 351 348 347 346 347 347 343 342 345 348 349 347 347 342 333 343 344 343 343 340 341 340 338
346 346 347 346 350 350 352 351 351 351 350 351 350 353 353 350 351 350 350 351 349 348 343 344 347 349 349 350 349 348 347 349 348 350 349 346 345 346 342 342 341 341 340
348 347 348 346 348 351 351 352 352 352 353 350 351 353 353 353 353 349 353 347 351 352 352 351 350 349 348 348 351 351 350 349 349 348 347 349 349 349 348 345 343 340 340
349 349 349 349 347 350 353 354 354 354 354 351 351 352 355 354 353 352 351 352 347 354 350 351 353 353 350 352 352 352 352 351 351 349 347 348 349 350 350 348 342 341 341
348 350 351 350 349 350 353 352 352 352 352 352 352 352 354 353 353 354 351 353 352 352 352 353 354 354 352 348 349 349 350 348 348 351 349 348 351 350 351 350 347 346 342
349 350 350 355 351 354 355 355 355 355 353 352 354 356 356 354 354 354 351 353 351 352 352 353 349 353 348 348 350 350 352 350 347 348 348 348 347 350 348 350 350 348 347
350 351 353 350 357 354 355 356 353 347 352 354 353 354 352 354 355 355 354 352 351 351 349 350 351 350 353 349 350 350 351 352 348 348 346 345 343 346 344 349 348 349 346
351 353 355 353 358 355 354 357 354 355 353 354 354 353 345 349 356 355 355 352 353 354 350 352 351 352 350 347 347 349 348 348 352 348 347 347 344 344 348 346 348 344 345
352 352 355 356 358 357 354 359 355 357 353 353 351 351 345 349 357 352 355 355 354 351 350 351 350 350 349 349 348 344 340 338 343 348 347 342 344 344 343 343 344 343 343
352 353 354 358 358 360 356 360 357 355 354 355 352 350 352 352 354 354 353 353 353 352 351 351 349 348 344 343 342 338 336 335 336 336 339 336 336 344 343 342 341 341 341
Wind_Speed
9 6 9 11 13 15 16 16 17 16 16 14 14 14 12 12 11 11 10 10 10 11 10 10 8 7 6 6 7 8 11 14 15 14 15 15 15 14 13 12 14 15 16
12 7 12 11 13 14 15 15 16 14 13 12 12 12 11 11 10 8 8 9 9 8 8 8 7 7 7 7 9 10 13 12 12 14 13 13 13 13 11 12 14 15 15
10 12 13 12 14 14 14 15 14 13 12 10 10 10 11 8 8 7 7 6 6 6 5 7 6 7 8 10 12 11 11 10 10 11 12 12 9 10 14 14 15 14 14
14 13 13 15 16 14 14 14 12 10 10 11 10 9 8 8 7 6 6 6 6 6 6 7 8 8 8 11 11 11 9 8 10 9 11 13 7 8 11 12 14 13 13
17 18 16 16 16 14 14 12 11 9 7 7 7 8 7 7 6 6 6 5 6 7 7 7 8 8 8 10 9 7 7 5 9 11 15 24 12 7 11 11 13 13 12
22 19 18 16 15 12 12 11 9 8 6 6 6 6 6 5 5 5 5 5 6 8 8 8 8 8 8 9 7 4 5 4 5 11 9 22 14 11 9 8 11 12 11
25 20 19 16 15 13 10 9 8 7 6 6 6 5 5 5 4 5 6 6 7 8 8 9 7 8 7 7 6 4 3 1 8 24 9 15 14 12 10 10 10 11 10
20 22 18 17 14 13 10 9 6 7 6 6 7 6 6 7 6 7 7 7 7 8 9 8 7 6 6 6 5 3 2 2 2 9 18 19 13 11 10 10 10 10 9
21 21 19 14 13 12 10 8 7 7 6 7 6 8 7 8 7 7 7 8 8 8 9 9 7 7 6 4 2 3 4 3 2 12 18 20 14 12 10 9 10 9 9
27 21 17 16 12 12 11 10 9 8 8 7 7 8 7 6 6 6 6 7 7 7 8 9 7 7 5 4 3 5 6 3 4 12 12 17 14 12 10 8 8 8 9
17 19 21 16 16 17 15 11 9 8 8 8 7 8 7 10 6 4 6 6 8 8 8 7 7 6 5 3 2 1 3 8 4 7 13 12 11 11 11 11 8 8 8
12 11 17 19 20 22 17 14 10 8 7 8 7 7 11 6 12 8 7 7 9 10 9 8 7 6 5 3 3 3 3 3 4 14 11 9 9 9 9 9 9 8 8
15 18 19 19 21 21 22 12 14 13 11 11 10 5 6 7 11 11 8 7 9 11 9 10 9 10 9 5 3 6 6 9 9 7 5 6 6 7 7 8 8 8 8
24 24 13 23 16 15 14 11 12 14 12 12 11 7 6 3 7 6 5 10 12 11 12 11 14 13 7 10 8 9 9 9 6 4 11 8 8 8 8 8 6 8 8
19 24 20 18 16 7 6 5 13 6 9 7 12 10 6 5 4 6 8 6 12 12 8 11 10 12 7 5 8 7 8 10 10 2 9 12 7 7 7 8 10 9 9
20 21 28 16 16 12 9 4 5 8 6 8 8 8 10 9 8 8 9 7 8 10 10 9 8 9 9 10 7 11 9 9 13 11 3 7 8 8 8 10 13 15 12
22 23 20 18 18 18 12 10 9 9 9 11 9 8 10 5 7 10 11 11 7 7 9 10 10 11 11 10 10 12 11 13 13 13 18 9 10 13 11 11 14 15 15
26 25 17 18 23 19 18 16 15 14 8 13 5 10 5 3 3 7 9 10 7 10 6 8 7 10 11 11 12 11 12 14 12 13 12 12 13 15 18 16 14 17 17
22 27 22 17 21 21 21 18 16 14 10 10 4 12 7 4 5 5 10 10 10 7 6 8 9 10 10 11 13 14 17 14 15 14 19 18 15 15 17 16 16 16 15
27 25 24 21 25 22 22 15 14 8 10 9 6 11 8 6 5 4 7 8 8 7 7 7 6 7 9 9 13 17 18 15 17 17 16 14 14 15 13 13 18 22 19
22 23 27 23 25 25 21 13 12 12 12 16 10 9 6 5 5 6 7 6 6 7 6 5 5 6 7 9 14 13 11 17 15 18 10 14 9 10 13 11 16 15 17
23 22 22 19 28 26 21 15 11 9 18 12 12 8 7 7 5 5 5 5 6 4 5 4 4 5 5 4 6 12 2 3 3 7 7 8 4 14 10 14 12 11 15
22 27 26 25 24 23 17 18 11 15 11 12 10 11 10 10 7 6 4 4 3 4 5 5 4 4 5 4 5 4 3 1 9 10 8 8 5 8 6 9 7 5 5
25 23 26 28 22 22 22 19 21 19 13 12 13 8 11 10 7 6 6 4 3 2 2 3 3 1 3 7 9 8 13 5 2 2 7 12 10 5 11 10 10 4 2
29 27 25 28 26 24 26 19 20 17 18 15 14 12 11 8 10 9 5 4 3 2 3 2 2 2 4 7 10 10 7 5 6 7 3 6 16 12 10 11 13 13 7
31 31 28 31 29 26 28 21 22 18 14 16 16 14 12 12 10 8 6 4 3 1 3 2 2 2 4 6 5 6 5 5 8 6 3 9 8 10 9 7 8 10 10
Wind_Direction
150 110 123 125 127 125 126 126 123 124 121 121 120 117 116 113 111 110 106 97 92 91 90 88 90 87 85 80 102 118 117 111 119 121 126 118 113 105 99 109 103 102 101
146 140 126 126 129 133 134 132 128 126 125 124 125 123 123 121 111 102 103 100 92 91 88 84 93 101 95 94 96 112 115 119 127 128 122 112 113 111 99 110 127 106 108
131 144 131 129 130 135 145 138 131 127 125 132 132 136 134 135 118 108 109 105 88 86 91 85 95 114 108 106 113 122 127 147 133 127 112 103 111 110 107 107 108 110 110
154 146 140 137 117 130 146 140 139 137 136 139 141 141 142 139 130 124 119 109 86 79 95 104 104 121 122 121 116 124 138 143 133 134 107 96 95 110 105 109 112 118 116
160 150 152 136 128 131 131 133 137 133 141 129 137 136 142 137 136 132 131 116 101 101 109 115 110 118 125 122 116 122 130 150 140 109 118 153 135 123 110 114 112 117 118
153 153 146 142 141 137 136 135 131 138 138 131 127 131 136 135 144 148 142 131 125 121 121 117 117 117 118 124 128 122 136 181 184 139 142 190 140 116 124 113 118 125 124
142 144 142 147 143 146 139 135 138 143 131 144 140 157 149 143 141 132 141 141 135 132 117 118 124 122 122 127 138 147 161 291 12 114 94 150 119 124 123 121 126 123 126
142 144 143 150 145 140 139 140 141 128 151 148 151 163 154 142 145 145 146 146 139 131 130 126 127 126 129 132 143 147 169 246 41 117 130 129 123 128 126 134 127 123 132
147 144 146 148 146 139 148 149 149 137 140 148 156 165 163 157 156 156 158 152 147 143 139 136 138 140 140 142 128 114 120 119 131 131 115 129 124 124 134 134 132 138 135
154 147 146 152 152 155 161 166 155 156 165 169 165 166 160 167 154 163 168 157 156 156 152 140 151 153 159 144 101 85 125 85 93 93 115 112 128 133 130 133 143 147 144
168 169 152 158 175 176 173 166 164 165 174 175 175 164 155 195 181 181 189 191 168 166 170 162 160 153 165 152 164 99 343 290 269 171 147 120 129 142 149 154 152 155 152
158 153 167 174 179 182 182 171 164 178 182 183 189 195 202 220 198 179 187 206 179 178 184 185 185 172 166 230 277 1 326 248 268 150 132 127 134 142 152 157 158 167 169
180 194 199 192 191 162 168 157 179 190 201 192 184 198 221 207 164 175 190 189 191 191 198 209 217 219 212 217 299 205 202 251 271 130 155 154 153 155 157 166 175 176 179
185 194 206 170 192 165 153 181 191 185 205 207 192 181 218 227 171 182 203 198 195 204 202 215 222 222 246 246 254 255 254 273 260 285 226 224 194 182 176 183 190 196 190
181 158 193 161 156 163 146 138 158 178 207 169 191 171 194 217 207 211 167 176 203 205 214 239 240 217 203 245 236 259 274 248 250 232 225 203 202 208 210 206 204 208 209
178 179 171 167 167 174 199 214 192 202 214 186 187 199 202 221 224 232 216 226 208 198 214 221 232 230 243 251 269 270 280 258 266 255 138 193 209 219 223 227 220 212 211
180 178 178 178 166 174 191 209 201 207 207 204 214 194 194 209 233 229 224 226 231 217 220 231 242 258 264 271 278 269 265 266 256 248 251 242 252 236 239 252 234 224 219
181 161 201 185 168 175 188 198 213 213 228 202 221 169 151 105 204 209 205 202 211 222 242 241 254 244 252 258 264 268 254 257 241 249 262 263 253 253 248 247 237 233 227
178 164 177 180 172 176 189 195 214 216 206 225 224 171 148 136 153 174 192 208 201 223 234 234 233 245 253 253 255 254 248 235 240 226 234 237 235 245 245 245 231 232 235
168 177 170 181 177 179 184 193 208 216 224 225 208 157 156 153 162 180 180 194 194 204 221 219 229 231 250 257 267 266 245 241 254 231 230 225 228 241 245 243 231 233 234
167 168 168 172 174 175 175 192 212 224 219 224 179 164 176 152 181 199 190 199 197 216 226 211 227 258 269 262 288 302 224 249 255 239 237 213 224 246 247 224 232 260 237
170 172 177 179 171 174 169 187 196 209 214 190 169 160 161 177 201 198 210 231 232 200 217 221 230 254 271 281 288 319 299 277 296 210 162 188 189 218 226 231 241 244 241
182 172 172 191 176 178 184 176 187 219 173 165 189 174 192 191 196 227 203 235 208 227 222 222 235 265 298 300 289 277 342 32 320 195 177 202 202 192 226 216 249 229 290
177 176 175 181 188 185 194 172 179 193 182 195 191 189 193 188 198 216 240 212 213 250 252 230 231 275 299 308 313 259 238 296 350 355 220 212 237 267 138 95 136 69 62
179 181 182 180 188 193 199 188 189 204 185 176 174 194 190 194 214 202 191 200 215 231 212 233 334 337 330 315 352 15 8 330 256 251 299 356 99 117 101 95 105 94 82
180 178 185 182 187 191 198 198 192 207 193 179 180 184 196 202 190 196 194 192 197 145 166 105 102 69 353 4 338 342 342 29 4 356 346 342 345 141 130 119 88 71 67